FICHTELBE Weather Reports


Display with metric or nautical units.
time (UTC)temp
F
wind
direction
speed
MPH
gust
MPH
rain 1hr
in
rain 24hr
in
rain mn
in
humidity
%
barometer
mb
20260906181638 52 130 2.0 0.0 0.00 0.00 0.00 66
20260906171638 55 30 3.0 0.0 0.00 0.00 0.00 58
20260906162041 59 280 6.0 0.0 0.00 0.00 0.00 51
20260906151638 61 280 7.0 0.0 0.00 0.00 0.00 51
20260906141637 59 290 8.0 0.0 0.00 0.00 0.00 54
20260906131938 57 310 8.0 15.0 0.00 0.00 0.00 54
20260906121638 57 300 7.0 0.0 0.00 0.00 0.00 50
20260906111639 54 270 7.0 0.0 0.00 0.00 0.00 66
20260906102040 50 290 12.0 0.0 0.00 0.00 0.00 71
20260906091638 48 310 14.0 21.0 0.00 0.00 0.00 81
20260906081639 45 320 18.0 25.0 0.00 0.00 0.00 93
20260906071938 43 310 18.0 0.0 0.00 0.00 0.00 93
20260906061637 43 310 21.0 28.0 0.00 0.00 0.00 93
20260906051637 43 310 23.0 30.0 0.00 0.00 0.00 99
20260906042039 43 300 25.0 32.0 0.00 0.00 0.00 99
20260906031638 45 300 21.0 28.0 0.00 0.00 0.00 87
20260906021638 45 300 20.0 26.0 0.00 0.00 0.00 99
20260906011937 46 290 18.0 26.0 0.00 0.00 0.00 93
20260906001638 46 290 17.0 26.0 0.00 0.00 0.00 93
20260905231638 46 290 21.0 29.0 0.00 0.00 0.00 93
20260905222040 48 300 25.0 35.0 0.00 0.00 0.00 81
20260905211637 48 290 25.0 32.0 0.00 0.00 0.00 81
20260905201638 48 290 28.0 36.0 0.00 0.00 0.00 81
20260905191939 48 290 26.0 33.0 0.00 0.00 0.00 81